Powrót do katalogu

COSMOS 684

AktywnyMilitariaLEO
NORAD 7442·PAYLOAD·🇷🇺 Russia

Wystrzelony Sep 19, 1974 z Plesetsk Cosmodrome

Loading…

Następne Przeloty (najbliższe 24 godziny)

TLE

ŚwieżeSource: Space-Track

Epoka: Sep 14, 2026, 13:48 UTC

1 07442U 74072H   26257.57544860  .00000002  00000-0  10733-3 0  9997
2 07442  74.0350 303.1724 0032104  44.3494 109.8044 12.55723796382967

Śledź COSMOS 684 w czasie rzeczywistym z AllMySat

Download on the App Store